Date String (YYYY-MM-DD hh:mm:ss) UTC,Instrument flags,Ambient pressure (hPa),Sample flow (lpm),Bypass flow (lpm),Sample temperature (°C),Ambient temperature (°C),ASC tube jacket temperature (°C),LED temperature (°C),Box temperature (°C),Sample RH (%),Span deviation,Mass concentration (μg/m³),Mass concentration (μg/m³),Mass concentration (μg/m³)
DateTimeUTC,F1_M11,P_M11,Q1_M11,Q2_M11,T1_M11,T2_M11,T3_M11,T4_M11,T5_M11,U1_M11,ZSPAN_M11,X0_M11,X2_M11,X1_M11
2022-05-08 06:00:00,,0814.4,5.00,0.00,27.2,26.4,00.0,36.2,29.0,21.1,0000.0,0033.82,0010.05,0003.49
2022-05-08 06:01:00,,0814.4,4.99,0.00,27.1,26.4,00.0,36.2,29.0,21.0,0000.0,0033.10,0009.94,0003.45
2022-05-08 06:02:00,,0814.4,5.01,0.00,27.1,26.4,00.0,36.2,28.9,21.0,0000.0,0031.95,0009.83,0003.42
2022-05-08 06:03:00,,0814.4,5.00,0.00,27.1,26.4,00.0,36.2,28.9,21.1,0000.0,0031.03,0009.85,0003.42
2022-05-08 06:04:00,,0814.4,5.00,0.00,27.1,26.4,00.0,36.2,28.9,21.1,0000.0,0031.08,0009.81,0003.39
2022-05-08 06:05:00,,0814.4,4.98,0.00,27.1,26.4,00.0,36.2,28.8,21.1,0000.0,0030.40,0009.67,0003.35
2022-05-08 06:06:00,,0814.6,5.01,0.00,27.1,26.4,00.0,36.2,28.9,21.1,0000.0,0029.26,0009.56,0003.31
2022-05-08 06:07:00,,0814.5,5.01,0.00,27.1,26.3,00.0,36.2,28.8,21.0,0000.0,0029.12,0009.49,0003.28
2022-05-08 06:08:00,,0814.9,5.00,0.00,27.0,26.3,00.0,36.1,28.8,21.0,0000.0,0028.87,0009.37,0003.27
2022-05-08 06:09:00,,0815.0,5.00,0.00,27.0,26.3,00.0,36.1,28.8,21.0,0000.0,0028.08,0009.13,0003.25
2022-05-08 06:10:00,,0814.8,4.99,0.00,27.0,26.3,00.0,36.1,28.8,21.0,0000.0,0027.52,0009.04,0003.21
2022-05-08 06:11:00,,0815.0,5.00,0.00,27.0,26.3,00.0,36.1,28.8,21.0,0000.0,0026.69,0008.96,0003.19
2022-05-08 06:12:00,,0814.8,5.01,0.00,27.0,26.3,00.0,36.1,28.8,21.1,0000.0,0026.70,0008.89,0003.18
2022-05-08 06:13:00,,0814.9,5.00,0.00,27.0,26.3,00.0,36.1,28.8,21.0,0000.0,0027.44,0008.87,0003.18
2022-05-08 06:14:00,,0814.9,4.99,0.00,27.0,26.3,00.0,36.1,28.8,20.9,0000.0,0027.80,0008.80,0003.16
2022-05-08 06:15:00,,0814.7,5.00,0.00,27.0,26.4,00.0,36.1,28.8,20.8,0000.0,0027.93,0008.65,0003.13
2022-05-08 06:16:00,,0814.6,5.00,0.00,27.0,26.4,00.0,36.1,28.8,20.7,0000.0,0028.26,0008.65,0003.14
2022-05-08 06:17:00,,0815.0,5.00,0.00,27.0,26.4,00.0,36.1,28.8,20.8,0000.0,0028.65,0008.69,0003.14
2022-05-08 06:18:00,,0815.0,4.99,0.00,27.0,26.4,00.0,36.1,28.8,20.7,0000.0,0028.90,0008.80,0003.15
2022-05-08 06:19:00,,0814.9,4.99,0.00,27.0,26.4,00.0,36.1,28.8,20.6,0000.0,0028.81,0008.84,0003.14
2022-05-08 06:20:00,,0815.0,5.00,0.00,27.0,26.4,00.0,36.1,28.8,20.6,0000.0,0028.32,0008.85,0003.13
2022-05-08 06:21:00,,0814.9,5.01,0.00,27.0,26.3,00.0,36.0,28.8,20.7,0000.0,0027.64,0008.74,0003.11
2022-05-08 06:22:00,,0814.7,5.00,0.00,27.0,26.3,00.0,36.0,28.8,20.6,0000.0,0027.23,0008.67,0003.10
2022-05-08 06:23:00,,0814.8,5.01,0.00,27.0,26.3,00.0,36.0,28.8,20.7,0000.0,0026.59,0008.53,0003.06
2022-05-08 06:24:00,,0814.7,5.00,0.00,27.0,26.2,00.0,36.0,28.8,20.7,0000.0,0026.14,0008.48,0003.04
2022-05-08 06:25:00,,0814.9,4.98,0.00,26.9,26.1,00.0,36.0,28.7,20.6,0000.0,0025.69,0008.50,0003.06
2022-05-08 06:26:00,,0814.7,5.00,0.00,26.9,26.1,00.0,36.0,28.7,20.8,0000.0,0025.11,0008.57,0003.05
2022-05-08 06:27:00,,0814.7,5.00,0.00,26.9,26.1,00.0,36.0,28.7,20.9,0000.0,0024.72,0008.58,0003.01
2022-05-08 06:28:00,,0814.7,5.00,0.00,26.9,26.1,00.0,36.0,28.6,20.8,0000.0,0024.85,0008.47,0002.99
2022-05-08 06:29:00,,0814.7,5.01,0.00,26.9,26.2,00.0,36.0,28.7,20.9,0000.0,0024.60,0008.35,0002.96
2022-05-08 06:30:00,,0814.7,4.99,0.00,26.9,26.2,00.0,36.0,28.7,20.8,0000.0,0025.24,0008.21,0002.93
2022-05-08 06:31:00,,0814.8,4.99,0.00,26.9,26.2,00.0,36.0,28.7,20.7,0000.0,0025.21,0008.16,0002.92
2022-05-08 06:32:00,,0814.9,5.00,0.00,26.9,26.3,00.0,36.0,28.7,20.5,0000.0,0025.08,0008.17,0002.95
2022-05-08 06:33:00,,0814.8,4.99,0.00,26.9,26.3,00.0,36.0,28.8,20.6,0000.0,0025.44,0008.19,0002.94
2022-05-08 06:34:00,,0814.9,5.00,0.00,26.9,26.3,00.0,36.0,28.8,20.5,0000.0,0026.26,0008.26,0002.95
2022-05-08 06:35:00,,0814.9,4.99,0.00,26.9,26.3,00.0,35.9,28.8,20.5,0000.0,0026.27,0008.25,0002.96
2022-05-08 06:36:00,,0815.0,4.99,0.00,26.9,26.3,00.0,35.9,28.8,20.5,0000.0,0025.84,0008.16,0002.96
2022-05-08 06:37:00,,0815.0,4.99,0.00,27.0,26.2,00.0,36.0,28.8,20.5,0000.0,0026.23,0008.15,0002.99
2022-05-08 06:38:00,,0815.1,5.01,0.00,26.9,26.2,00.0,36.0,28.8,20.4,0000.0,0026.62,0008.13,0003.02
2022-05-08 06:39:00,,0815.1,5.01,0.00,26.9,26.2,00.0,36.0,28.8,20.5,0000.0,0025.74,0008.12,0003.03
2022-05-08 06:40:00,,0815.3,5.00,0.00,26.9,26.2,00.0,36.0,28.8,20.5,0000.0,0025.17,0008.12,0003.03
2022-05-08 06:41:00,,0815.2,4.99,0.00,26.9,26.1,00.0,36.0,28.8,20.6,0000.0,0024.56,0008.20,0003.04
2022-05-08 06:42:00,,0815.3,4.99,0.00,26.9,26.1,00.0,36.0,28.8,20.5,0000.0,0024.54,0008.28,0003.06
2022-05-08 06:43:00,,0815.2,5.01,0.00,26.9,26.2,00.0,35.9,28.8,20.5,0000.0,0025.23,0008.38,0003.07
2022-05-08 06:44:00,,0815.1,5.00,0.00,27.0,26.2,00.0,36.0,28.8,20.5,0000.0,0025.73,0008.45,0003.10
2022-05-08 06:45:00,,0815.3,5.00,0.00,27.0,26.2,00.0,36.0,28.8,20.1,0000.0,0025.49,0008.44,0003.10
2022-05-08 06:46:00,,0815.2,5.01,0.00,27.0,26.3,00.0,36.0,28.8,19.8,0000.0,0025.07,0008.48,0003.13
2022-05-08 06:47:00,,0815.1,5.00,0.00,27.0,26.3,00.0,36.0,28.8,19.7,0000.0,0025.02,0008.54,0003.13
2022-05-08 06:48:00,,0815.1,5.01,0.00,27.0,26.3,00.0,36.0,28.8,19.7,0000.0,0025.17,0008.56,0003.14
2022-05-08 06:49:00,,0815.1,5.00,0.00,27.0,26.3,00.0,36.0,28.8,19.8,0000.0,0026.54,0008.66,0003.16
2022-05-08 06:50:00,,0815.1,5.00,0.00,26.9,26.3,00.0,36.0,28.8,19.6,0000.0,0027.31,0008.80,0003.17
2022-05-08 06:51:00,,0815.3,5.00,0.00,26.9,26.2,00.0,35.9,28.7,19.7,0000.0,0027.13,0008.80,0003.19
2022-05-08 06:52:00,,0815.1,5.00,0.00,26.9,26.2,00.0,35.9,28.7,19.7,0000.0,0026.84,0008.79,0003.20
2022-05-08 06:53:00,,0815.2,5.00,0.00,26.9,26.2,00.0,35.9,28.7,19.7,0000.0,0026.85,0008.84,0003.21
2022-05-08 06:54:00,,0815.2,5.00,0.00,26.9,26.2,00.0,35.9,28.7,19.8,0000.0,0027.26,0008.85,0003.22
2022-05-08 06:55:00,,0815.2,5.00,0.00,26.9,26.2,00.0,35.9,28.7,19.8,0000.0,0028.02,0008.89,0003.23
2022-05-08 06:56:00,,0815.2,5.00,0.00,26.9,26.1,00.0,35.9,28.7,19.8,0000.0,0028.19,0008.94,0003.26
2022-05-08 06:57:00,,0815.2,5.00,0.00,26.8,26.1,00.0,35.9,28.6,19.9,0000.0,0028.89,0008.98,0003.25
2022-05-08 06:58:00,,0815.3,4.99,0.00,26.8,26.1,00.0,35.9,28.6,19.8,0000.0,0030.79,0009.02,0003.25
2022-05-08 06:59:00,,0815.3,5.00,0.00,26.8,26.1,00.0,35.9,28.6,19.7,0000.0,0030.65,0009.03,0003.24
